N0KTA-2 Weather Reports


Display with metric or nautical units.
time (UTC)temp
F
wind
direction
speed
MPH
gust
MPH
rain 1hr
in
rain 24hr
in
rain mn
in
humidity
%
barometer
mb
20260906110051 76 11 0.0 1.0 0.00 0.00 0.00 72 1007.9
20260906105050 76 317 0.0 0.0 0.00 0.00 0.00 72 1007.9
20260906104051 77 302 0.0 0.0 0.00 0.00 0.00 72 1007.8
20260906103050 77 302 0.0 0.0 0.00 0.00 0.00 71 1007.8
20260906102051 77 302 0.0 0.0 0.00 0.00 0.00 71 1007.7
20260906101050 77 302 0.0 0.0 0.00 0.00 0.00 70 1007.8
20260906100050 77 178 0.0 0.0 0.00 0.00 0.00 69 1007.7
20260906095049 78 55 0.0 0.0 0.00 0.00 0.00 69 1007.7
20260906094051 78 40 0.0 2.0 0.00 0.00 0.00 69 1007.7
20260906093050 78 310 0.0 1.0 0.00 0.00 0.00 69 1007.7
20260906092051 78 75 0.0 2.0 0.00 0.00 0.00 69 1007.7
20260906091050 78 63 0.0 1.0 0.00 0.00 0.00 69 1007.6
20260906090051 78 90 0.0 1.0 0.00 0.00 0.00 68 1007.7
20260906085050 78 166 0.0 0.0 0.00 0.00 0.00 68 1007.6
20260906084051 78 197 0.0 0.0 0.00 0.00 0.00 67 1007.5
20260906083050 79 230 0.0 2.0 0.00 0.00 0.00 68 1007.5
20260906082051 79 121 0.0 1.0 0.00 0.00 0.00 67 1007.3
20260906081050 79 166 0.0 0.0 0.00 0.00 0.00 67 1007.5
20260906080049 79 202 0.0 0.0 0.00 0.00 0.00 65 1007.3
20260906075050 80 213 0.0 0.0 0.00 0.00 0.00 64 1007.2
20260906074050 80 234 0.0 0.0 0.00 0.00 0.00 64 1007.2
20260906073051 80 278 0.0 0.0 0.00 0.00 0.00 64 1007.1
20260906072049 80 155 0.0 0.0 0.00 0.00 0.00 64 1007.1
20260906071051 81 202 0.0 0.0 0.00 0.00 0.00 64 1007.1
20260906070049 81 227 0.0 0.0 0.00 0.00 0.00 63 1007.1
20260906065050 81 201 0.0 0.0 0.00 0.00 0.00 63 1007.1
20260906064050 81 221 0.0 0.0 0.00 0.00 0.00 63 1007.1
20260906063051 81 259 0.0 2.0 0.00 0.00 0.00 63 1007.1
20260906062049 81 255 0.0 0.0 0.00 0.00 0.00 63 1007.1
20260906061050 81 291 0.0 0.0 0.00 0.00 0.00 62 1007.1
20260906060050 82 224 0.0 1.0 0.00 0.00 0.00 61 1007.2
20260906055049 82 355 0.0 2.0 0.00 0.00 0.00 61 1007.4
20260906054050 83 328 0.0 0.0 0.00 0.00 0.00 59 1007.5
20260906053050 83 277 0.0 2.0 0.00 0.00 0.00 59 1007.4
20260906052051 84 10 0.0 1.0 0.00 0.00 0.00 58 1007.3
20260906051050 84 211 0.0 2.0 0.00 0.00 0.00 57 1007.1
20260906050050 84 283 0.0 2.0 0.00 0.00 0.00 57 1007.2
20260906045051 85 222 0.0 1.0 0.00 0.00 0.00 56 1007.2
20260906044050 85 199 0.0 1.0 0.00 0.00 0.00 56 1007.2
20260906043051 85 209 0.0 0.0 0.00 0.00 0.00 58 1007.1
20260906042050 85 214 0.0 0.0 0.00 0.00 0.00 56 1007.2
20260906041049 85 220 0.0 1.0 0.00 0.00 0.00 56 1007.1
20260906040049 85 232 0.0 1.0 0.00 0.00 0.00 56 1007.3
20260906035050 86 217 0.0 1.0 0.00 0.00 0.00 56 1007.3
20260906034049 86 225 0.0 1.0 0.00 0.00 0.00 56 1007.1
20260906033051 86 215 0.0 2.0 0.00 0.00 0.00 55 1007.1
20260906032050 87 229 0.0 2.0 0.00 0.00 0.00 54 1007.1
20260906031049 87 205 0.0 0.0 0.00 0.00 0.00 53 1007.0
20260906030050 87 218 0.0 1.0 0.00 0.00 0.00 53 1007.1
20260906025050 87 228 1.0 1.0 0.00 0.00 0.00 53 1006.9
20260906024051 88 211 1.0 2.0 0.00 0.00 0.00 53 1006.7
20260906023050 88 201 1.0 2.0 0.00 0.00 0.00 53 1006.7
20260906022051 88 209 0.0 0.0 0.00 0.00 0.00 53 1006.6
20260906021050 88 222 0.0 1.0 0.00 0.00 0.00 53 1006.4
20260906020051 89 208 0.0 0.0 0.00 0.00 0.00 51 1006.5
20260906015051 90 222 0.0 0.0 0.00 0.00 0.00 51 1006.3
20260906014050 90 217 0.0 0.0 0.00 0.00 0.00 49 1006.2
20260906013049 91 215 0.0 0.0 0.00 0.00 0.00 48 1005.9
20260906012050 91 209 0.0 0.0 0.00 0.00 0.00 47 1005.8
20260906011050 92 335 0.0 0.0 0.00 0.00 0.00 47 1005.7
20260906010049 93 202 2.0 2.0 0.00 0.00 0.00 46 1005.8
20260906005050 94 188 1.0 2.0 0.00 0.00 0.00 45 1005.5
20260906004049 94 192 1.0 3.0 0.00 0.00 0.00 44 1005.7
20260906003049 95 208 1.0 2.0 0.00 0.00 0.00 43 1005.7
20260906002050 96 191 1.0 2.0 0.00 0.00 0.00 41 1005.7
20260906001049 97 196 1.0 2.0 0.00 0.00 0.00 40 1005.8
20260906000050 98 217 1.0 1.0 0.00 0.00 0.00 39 1005.7
20260905235049 99 246 0.0 2.0 0.00 0.00 0.00 38 1005.6
20260905234051 99 184 2.0 5.0 0.00 0.00 0.00 37 1005.8
20260905233050 99 216 0.0 3.0 0.00 0.00 0.00 37 1005.9
20260905232050 99 212 3.0 5.0 0.00 0.00 0.00 37 1005.7
20260905231049 99 324 0.0 1.0 0.00 0.00 0.00 36 1005.6
20260905230050 99 193 5.0 5.0 0.00 0.00 0.00 36 1005.5
20260905225049 100 194 5.0 9.0 0.00 0.00 0.00 37 1005.6
20260905224049 100 202 3.0 5.0 0.00 0.00 0.00 37 1005.6
20260905223049 100 203 5.0 7.0 0.00 0.00 0.00 37 1005.5
20260905222050 100 188 2.0 6.0 0.00 0.00 0.00 37 1005.5
20260905221049 100 189 2.0 8.0 0.00 0.00 0.00 36 1005.5
20260905220050 101 270 0.0 7.0 0.00 0.00 0.00 36 1005.4
20260905215049 100 199 5.0 10.0 0.00 0.00 0.00 36 1005.4
20260905214050 101 265 0.0 1.0 0.00 0.00 0.00 35 1005.4
20260905213050 101 213 1.0 9.0 0.00 0.00 0.00 38 1005.4
20260905212051 100 271 0.0 1.0 0.00 0.00 0.00 37 1005.5
20260905211050 100 231 6.0 9.0 0.00 0.00 0.00 36 1005.8
20260905210049 100 185 3.0 6.0 0.00 0.00 0.00 38 1005.9
20260905205050 100 234 3.0 5.0 0.00 0.00 0.00 38 1006.0
20260905204049 100 188 3.0 6.0 0.00 0.00 0.00 38 1006.3
20260905203050 100 288 2.0 5.0 0.00 0.00 0.00 38 1006.4
20260905202049 100 203 0.0 5.0 0.00 0.00 0.00 38 1006.5
20260905201050 100 191 6.0 8.0 0.00 0.00 0.00 37 1006.6
20260905200049 100 180 3.0 9.0 0.00 0.00 0.00 39 1006.6
20260905195050 100 163 6.0 6.0 0.00 0.00 0.00 39 1006.9
20260905194049 99 184 3.0 7.0 0.00 0.00 0.00 40 1007.0
20260905193050 99 204 1.0 3.0 0.00 0.00 0.00 41 1007.0
20260905192049 99 187 7.0 10.0 0.00 0.00 0.00 41 1007.1
20260905191051 99 343 1.0 1.0 0.00 0.00 0.00 41 1007.1
20260905190050 99 182 3.0 5.0 0.00 0.00 0.00 41 1007.3
20260905185050 98 207 2.0 3.0 0.00 0.00 0.00 43 1007.5
20260905184050 98 21 0.0 1.0 0.00 0.00 0.00 41 1007.6
20260905183049 98 99 2.0 3.0 0.00 0.00 0.00 42 1007.8
20260905182049 97 299 0.0 1.0 0.00 0.00 0.00 44 1007.8
20260905181050 97 175 2.0 3.0 0.00 0.00 0.00 46 1008.0
20260905180049 97 300 0.0 2.0 0.00 0.00 0.00 45 1007.9
20260905175051 98 266 1.0 3.0 0.00 0.00 0.00 43 1008.0
20260905174051 97 328 0.0 2.0 0.00 0.00 0.00 45 1008.0
20260905173050 97 278 1.0 1.0 0.00 0.00 0.00 44 1008.2
20260905172049 96 227 3.0 5.0 0.00 0.00 0.00 46 1008.4
20260905171050 96 189 7.0 12.0 0.00 0.00 0.00 45 1008.5
20260905170049 96 253 1.0 2.0 0.00 0.00 0.00 48 1008.5
20260905165050 95 179 3.0 6.0 0.00 0.00 0.00 48 1008.6
20260905164049 95 186 5.0 9.0 0.00 0.00 0.00 48 1008.5
20260905163050 95 251 2.0 5.0 0.00 0.00 0.00 48 1008.6
20260905162051 94 189 5.0 5.0 0.00 0.00 0.00 50 1008.6
20260905161050 93 222 3.0 5.0 0.00 0.00 0.00 51 1008.6
20260905160049 92 178 2.0 3.0 0.00 0.00 0.00 52 1008.5
20260905155050 91 207 2.0 3.0 0.00 0.00 0.00 54 1008.6
20260905154049 90 241 1.0 3.0 0.00 0.00 0.00 55 1008.6
20260905153051 90 281 3.0 3.0 0.00 0.00 0.00 55 1008.6
20260905152049 89 202 1.0 5.0 0.00 0.00 0.00 57 1008.7
20260905151049 88 219 0.0 1.0 0.00 0.00 0.00 58 1008.5
20260905150050 87 243 1.0 2.0 0.00 0.00 0.00 60 1008.4
20260905145049 87 196 2.0 3.0 0.00 0.00 0.00 60 1008.3
20260905144050 86 242 2.0 3.0 0.00 0.00 0.00 61 1008.2
20260905143049 86 203 3.0 7.0 0.00 0.00 0.00 62 1008.3
20260905142050 85 181 2.0 3.0 0.00 0.00 0.00 63 1008.2
20260905141050 84 209 2.0 6.0 0.00 0.00 0.00 64 1008.1
20260905140049 83 176 2.0 3.0 0.00 0.00 0.00 65 1008.1
20260905135050 82 188 3.0 3.0 0.00 0.00 0.00 67 1008.1
20260905134049 81 189 2.0 3.0 0.00 0.00 0.00 69 1008.2
20260905133049 80 183 2.0 3.0 0.00 0.00 0.00 70 1008.2
20260905132049 80 178 2.0 3.0 0.00 0.00 0.00 70 1008.1
20260905131050 79 191 1.0 3.0 0.00 0.00 0.00 72 1008.1
20260905130049 78 187 2.0 3.0 0.00 0.00 0.00 73 1007.9
20260905125050 77 176 1.0 2.0 0.00 0.00 0.00 73 1008.0
20260905124049 77 188 1.0 1.0 0.00 0.00 0.00 74 1007.9
20260905123049 77 204 0.0 2.0 0.00 0.00 0.00 74 1007.9
20260905122050 77 129 0.0 1.0 0.00 0.00 0.00 74 1007.9
20260905121049 77 125 0.0 1.0 0.00 0.00 0.00 74 1007.6
20260905120049 77 121 0.0 0.0 0.00 0.00 0.00 74 1007.3
20260905115050 77 154 0.0 1.0 0.00 0.00 0.00 73 1007.3
20260905114049 78 156 0.0 2.0 0.00 0.00 0.00 72 1007.3
20260905113050 78 175 0.0 1.0 0.00 0.00 0.00 71 1007.3
20260905112050 78 188 0.0 1.0 0.00 0.00 0.00 71 1007.3
20260905111049 78 186 1.0 2.0 0.00 0.00 0.00 72 1007.3